Location: Chequamegon National Forest
(46.1070°N, 90.8420°W)
Time: 23:33:37
(UTC-05:00)

Amateur Radio Satellites - All Passes

Search period start: 20 April 2014 23:03
Search period end: 21 April 2014 23:03
Location: Chequamegon National Forest, 46.1070°N, 90.8420°W

Satellite Date Start Highest point End Downlink Frequencies (MHz)
Time Altitude Azimuth
SO-50 20 Apr 23:06:33 23:10:42 32° 42° (NE) 23:14:54 436.795 FM
Oscar 11 20 Apr 23:07:18 23:10:23 19° 268° (W) 23:13:29 145.825 FM, Beacon 2401.500 USB
HO-68 20 Apr 23:32:08 23:34:33 12° 276° (W) 23:36:58 435.675 MHz FM
PCSat 20 Apr 23:38:49 23:42:28 19° 106° (ESE) 23:46:09 145.825 MHz
UOSAT-12 20 Apr 23:42:12 23:43:53 12° 21° (NNE) 23:45:33 437.025 FM, 437.400 FM
Sapphire 21 Apr 00:35:22 00:40:34 50° 115° (ESE) 00:45:48 437.095 MHz 1200 baud AX-25 AFSK
SO-50 21 Apr 00:47:01 00:51:24 42° 241° (WSW) 00:55:50 436.795 FM
OPAL 21 Apr 01:09:47 01:12:35 15° 54° (NE) 01:15:25 ?
PCSat 21 Apr 01:19:54 01:25:18 72° 304° (NW) 01:30:44 145.825 MHz
UOSAT-12 21 Apr 01:20:59 01:25:23 37° 44° (NE) 01:29:46 437.025 FM, 437.400 FM
KITSAT 1 21 Apr 01:42:06 01:47:58 23° 103° (ESE) 01:53:50 435.175 FM
Uribyol 2 21 Apr 01:42:22 01:42:49 10° 86° (E) 01:43:16 436.500 FM
Sapphire 21 Apr 02:19:25 02:24:13 32° 316° (NW) 02:29:04 437.095 MHz 1200 baud AX-25 AFSK
AO-27 21 Apr 02:20:21 02:24:28 23° 93° (E) 02:28:34 436.795 MHz FM
AO-Echo 21 Apr 02:21:51 02:25:06 18° 90° (E) 02:28:17 ?
ITAMSAT 1 21 Apr 02:30:24 02:34:51 28° 95° (E) 02:39:15 435.822 SSB
Oscar 19 21 Apr 02:31:11 02:36:18 53° 100° (E) 02:41:21 437.125 CW, 437.150 USB
Oscar 16 21 Apr 02:39:43 02:44:55 67° 102° (ESE) 02:50:05 437.025 USB, Beacon 2401.1428
OPAL 21 Apr 02:45:41 02:50:44 89° 72° (ENE) 02:55:54 ?
UOSAT-12 21 Apr 03:01:14 03:05:33 36° 243° (WSW) 03:09:49 437.025 FM, 437.400 FM
PCSat 21 Apr 03:06:04 03:09:42 18° 326° (NNW) 03:13:20 145.825 MHz
TMSAT-1 21 Apr 03:09:35 03:12:46 16° 89° (E) 03:15:55 436.925 FM
Uribyol 2 21 Apr 03:17:57 03:23:09 77° 104° (ESE) 03:28:20 436.500 FM
KITSAT 1 21 Apr 03:34:13 03:42:21 88° 304° (WNW) 03:50:33 435.175 FM
AO-27 21 Apr 03:59:15 04:04:15 50° 291° (WNW) 04:09:14 436.795 MHz FM
AO-Echo 21 Apr 03:59:35 04:04:17 55° 289° (WNW) 04:08:52 ?
Gurwin Techsat 1B 21 Apr 04:00:50 04:06:07 61° 101° (E) 04:11:21 435.225 FM
Sapphire 21 Apr 04:08:33 04:09:29 10° 340° (NNW) 04:10:24 437.095 MHz 1200 baud AX-25 AFSK
ITAMSAT 1 21 Apr 04:09:38 04:14:28 42° 293° (WNW) 04:19:18 435.822 SSB
Oscar 19 21 Apr 04:11:13 04:15:18 24° 298° (WNW) 04:19:23 437.125 CW, 437.150 USB
JAS-1B 21 Apr 04:12:24 04:17:14 28° 95° (E) 04:22:12 435.800 - 435.900 CW/SSB
Uosat F 21 Apr 04:19:47 04:23:49 24° 94° (E) 04:27:50 435.120 FM
Oscar 16 21 Apr 04:20:08 04:23:46 20° 300° (WNW) 04:27:24 437.025 USB, Beacon 2401.1428
OPAL 21 Apr 04:28:17 04:30:21 12° 271° (W) 04:32:26 ?
AO-7 21 Apr 04:44:30 04:51:47 32° 95° (E) 04:59:01 29.400 - 29.500 MHz
TMSAT-1 21 Apr 04:47:58 04:53:16 75° 287° (WNW) 04:58:33 436.925 FM
Uribyol 2 21 Apr 04:58:46 05:02:02 17° 302° (WNW) 05:05:18 436.500 FM
STRAND 1 21 Apr 05:28:25 05:31:57 19° 59° (ENE) 05:35:29 ?
KITSAT 1 21 Apr 05:31:53 05:38:52 31° 328° (NNW) 05:45:54 435.175 FM
MaSat-1 21 Apr 05:40:22 05:41:59 14° 52° (NE) 05:43:42 437.345 MHz
Gurwin Techsat 1B 21 Apr 05:41:41 05:45:39 22° 300° (WNW) 05:49:37 435.225 FM
Uosat F 21 Apr 05:58:03 06:02:50 46° 291° (WNW) 06:07:34 435.120 FM
Hamsat 21 Apr 06:00:14 06:01:00 10° 87° (E) 06:01:46 145.90 MHz
JAS-1B 21 Apr 06:02:50 06:08:11 43° 293° (WNW) 06:13:39 435.800 - 435.900 CW/SSB
RS-15 21 Apr 06:08:59 06:18:59 39° 108° (ESE) 06:28:41 29.354 - 29.394 USB, Beacon 29.352 USB
TMSAT-1 21 Apr 06:30:07 06:32:19 13° 306° (NW) 06:34:30 436.925 FM
AO-7 21 Apr 06:36:53 06:45:04 65° 295° (WNW) 06:53:15 29.400 - 29.500 MHz
PCSat 21 Apr 06:41:11 06:41:54 10° 20° (NNE) 06:42:37 145.825 MHz
STRAND 1 21 Apr 07:05:34 07:10:39 66° 258° (WSW) 07:15:45 ?
MaSat-1 21 Apr 07:17:40 07:20:26 36° 245° (WSW) 07:23:40 437.345 MHz
JAS-2 21 Apr 07:22:56 07:27:33 28° 95° (E) 07:32:31 435.800 - 435.900 CW/SSB, 435.910 FM
KITSAT 1 21 Apr 07:32:04 07:37:21 18° 357° (N) 07:42:38 435.175 FM
Hamsat 21 Apr 07:33:12 07:37:34 84° 284° (WNW) 07:41:57 145.90 MHz
AO-40 21 Apr 07:37:52 09:14:28 15° 128° (SE) 10:15:02 Beacon 2401.320
Sapphire 21 Apr 07:38:08 07:41:43 17° 33° (NNE) 07:45:16 437.095 MHz 1200 baud AX-25 AFSK
SO-67 21 Apr 07:45:03 07:47:57 24° 95° (E) 07:50:50 435.3500 MHz FM
RS-15 21 Apr 08:19:26 08:30:39 70° 312° (NW) 08:41:37 29.354 - 29.394 USB, Beacon 29.352 USB
PCSat 21 Apr 08:22:22 08:27:11 31° 44° (NE) 08:31:58 145.825 MHz
AO-7 21 Apr 08:31:13 08:36:20 18° 317° (NW) 08:41:28 29.400 - 29.500 MHz
HO-68 21 Apr 09:04:13 09:09:28 21° 90° (E) 09:14:42 435.675 MHz FM
JAS-2 21 Apr 09:07:45 09:12:50 45° 291° (WNW) 09:18:23 435.800 - 435.900 CW/SSB, 435.910 FM
Hamsat 21 Apr 09:11:57 09:12:50 11° 302° (WNW) 09:13:43 145.90 MHz
SO-67 21 Apr 09:18:12 09:21:02 23° 292° (WNW) 09:23:52 435.3500 MHz FM
Sapphire 21 Apr 09:20:43 09:26:09 70° 55° (NE) 09:31:33 437.095 MHz 1200 baud AX-25 AFSK
KITSAT 1 21 Apr 09:29:29 09:36:04 26° 27° (NNE) 09:42:37 435.175 FM
PCSat 21 Apr 10:05:36 10:10:52 52° 244° (WSW) 10:16:05 145.825 MHz
Saudisat 1A 21 Apr 10:20:26 10:23:56 23° 114° (ESE) 10:27:27 436.775 MHz
RS-15 21 Apr 10:35:41 10:45:20 33° 342° (NNW) 10:54:54 29.354 - 29.394 USB, Beacon 29.352 USB
FUNcube-1 21 Apr 10:47:28 10:50:42 20° 93° (E) 10:53:56 145.950 - 145.970 MHz USB
HO-68 21 Apr 10:50:44 10:57:57 81° 289° (WNW) 11:05:08 435.675 MHz FM
Oscar 11 21 Apr 10:50:51 10:55:12 65° 101° (ESE) 10:59:32 145.825 FM, Beacon 2401.500 USB
Sapphire 21 Apr 11:05:15 11:09:01 19° 254° (WSW) 11:12:46 437.095 MHz 1200 baud AX-25 AFSK
KITSAT 1 21 Apr 11:24:53 11:33:01 71° 52° (NE) 11:41:04 435.175 FM
Saudisat 1A 21 Apr 11:58:55 12:03:16 50° 312° (NW) 12:07:38 436.775 MHz
Oscar 19 21 Apr 12:14:11 12:17:08 16° 57° (ENE) 12:20:05 437.125 CW, 437.150 USB
Oscar 16 21 Apr 12:22:06 12:25:39 19° 59° (ENE) 12:29:12 437.025 USB, Beacon 2401.1428
FUNcube-1 21 Apr 12:23:17 12:27:17 41° 290° (WNW) 12:31:22 145.950 - 145.970 MHz USB
Oscar 11 21 Apr 12:28:24 12:30:55 15° 299° (WNW) 12:33:25 145.825 FM, Beacon 2401.500 USB
HO-68 21 Apr 12:39:50 12:44:37 20° 310° (NW) 12:49:25 435.675 MHz FM
Oscar 10/S400 21 Apr 12:43:39 14:13:47 32° 254° (WSW) 18:00:36 145.825 - 145.975 CW/USB, Beacon 145.810 USB
RS-15 21 Apr 12:52:19 13:01:50 32° 17° (NNE) 13:11:21 29.354 - 29.394 USB, Beacon 29.352 USB
Uribyol 2 21 Apr 13:00:42 13:04:38 23° 61° (ENE) 13:08:35 436.500 FM
KITSAT 1 21 Apr 13:21:02 13:27:48 31° 253° (WSW) 13:34:32 435.175 FM
AO-Echo 21 Apr 13:36:35 13:41:12 34° 66° (ENE) 13:45:44 ?
AO-27 21 Apr 13:40:47 13:45:43 46° 68° (ENE) 13:50:40 436.795 MHz FM
Saudisat 1A 21 Apr 13:41:52 13:43:55 13° 334° (NNW) 13:45:59 436.775 MHz
Gurwin Techsat 1B 21 Apr 13:46:50 13:50:29 19° 59° (ENE) 13:54:08 435.225 FM
Oscar 19 21 Apr 13:50:37 13:55:46 86° 256° (WSW) 14:00:59 437.125 CW, 437.150 USB
ITAMSAT 1 21 Apr 13:50:47 13:55:50 55° 70° (ENE) 14:00:53 435.822 SSB
AO-7 21 Apr 13:58:36 14:02:59 16° 40° (NE) 14:07:22 29.400 - 29.500 MHz
Oscar 16 21 Apr 13:59:22 14:04:29 68° 258° (WSW) 14:09:39 437.025 USB, Beacon 2401.1428
TMSAT-1 21 Apr 14:32:22 14:37:01 32° 65° (ENE) 14:41:41 436.925 FM
Uribyol 2 21 Apr 14:38:42 14:43:45 56° 259° (W) 14:48:51 436.500 FM
ISS 21 Apr 14:47:08 14:49:59 26° 139° (SE) 14:52:50 145.800 FM
OPAL 21 Apr 14:53:57 14:57:40 19° 93° (E) 15:01:22 ?
JAS-1B 21 Apr 14:59:35 15:06:28 38° 65° (ENE) 15:12:22 435.800 - 435.900 CW/SSB
SO-50 21 Apr 15:04:33 15:08:33 33° 117° (ESE) 15:12:37 436.795 FM
RS-15 21 Apr 15:05:43 15:16:39 67° 47° (NE) 15:27:45 29.354 - 29.394 USB, Beacon 29.352 USB
AO-Echo 21 Apr 15:15:11 15:19:56 35° 263° (W) 15:24:36 ?
AO-27 21 Apr 15:21:11 15:25:26 25° 266° (W) 15:29:43 436.795 MHz FM
Gurwin Techsat 1B 21 Apr 15:24:37 15:29:55 71° 257° (WSW) 15:35:14 435.225 FM
ITAMSAT 1 21 Apr 15:31:46 15:35:40 21° 268° (W) 15:39:35 435.822 SSB
Oscar 19 21 Apr 15:34:13 15:35:54 12° 274° (W) 15:37:37 437.125 CW, 437.150 USB
Uosat F 21 Apr 15:35:19 15:40:03 44° 68° (ENE) 15:44:49 435.120 FM
AO-7 21 Apr 15:46:02 15:54:00 55° 62° (ENE) 16:02:00 29.400 - 29.500 MHz
TMSAT-1 21 Apr 16:11:57 16:16:51 38° 263° (W) 16:21:48 436.925 FM
ISS 21 Apr 16:23:13 16:26:32 60° 337° (NNW) 16:29:52 145.800 FM
OPAL 21 Apr 16:31:48 16:36:58 63° 291° (WNW) 16:42:07 ?
SO-50 21 Apr 16:44:56 16:49:05 36° 316° (NW) 16:53:18 436.795 FM
JAS-1B 21 Apr 16:49:34 16:57:03 46° 261° (W) 17:03:24 435.800 - 435.900 CW/SSB
Hamsat 21 Apr 16:56:33 16:57:54 11° 59° (ENE) 16:59:15 145.90 MHz
Saudisat 1A 21 Apr 17:05:57 17:07:26 11° 24° (NNE) 17:08:55 436.775 MHz
UOSAT-12 21 Apr 17:14:33 17:18:46 38° 118° (ESE) 17:23:04 437.025 FM, 437.400 FM
Uosat F 21 Apr 17:14:53 17:19:02 25° 266° (W) 17:23:11 435.120 FM
RS-15 21 Apr 17:18:36 17:28:26 41° 251° (WSW) 17:38:33 29.354 - 29.394 USB, Beacon 29.352 USB
AO-7 21 Apr 17:39:30 17:47:03 39° 263° (W) 17:54:41 29.400 - 29.500 MHz
JAS-2 21 Apr 17:40:26 17:43:38 16° 58° (ENE) 17:46:44 435.800 - 435.900 CW/SSB, 435.910 FM
ISS 21 Apr 18:00:40 18:03:41 30° 357° (N) 18:06:43 145.800 FM
OPAL 21 Apr 18:13:24 18:14:52 11° 310° (NW) 18:16:19 ?
SO-67 21 Apr 18:22:25 18:24:16 14° 64° (ENE) 18:26:07 435.3500 MHz FM
Hamsat 21 Apr 18:29:00 18:33:13 86° 257° (WSW) 18:37:30 145.90 MHz
SO-50 21 Apr 18:29:48 18:31:00 11° 339° (NNW) 18:32:12 436.795 FM
Saudisat 1A 21 Apr 18:44:01 18:48:14 41° 46° (NE) 18:52:24 436.775 MHz
UOSAT-12 21 Apr 18:54:45 18:58:58 34° 317° (NW) 19:03:15 437.025 FM, 437.400 FM
STRAND 1 21 Apr 19:13:50 19:18:28 34° 96° (E) 19:23:05 ?
JAS-2 21 Apr 19:22:30 19:28:12 81° 256° (WSW) 19:33:29 435.800 - 435.900 CW/SSB, 435.910 FM
HO-68 21 Apr 19:36:16 19:41:38 24° 53° (NE) 19:47:01 435.675 MHz FM
ISS 21 Apr 19:37:40 19:40:55 45° 17° (NNE) 19:44:10 145.800 FM
SO-67 21 Apr 19:53:43 19:57:04 44° 261° (W) 20:00:27 435.3500 MHz FM
Saudisat 1A 21 Apr 20:23:57 20:27:42 27° 245° (WSW) 20:31:24 436.775 MHz
UOSAT-12 21 Apr 20:39:10 20:40:32 11° 340° (NNW) 20:41:54 437.025 FM, 437.400 FM
STRAND 1 21 Apr 20:53:05 20:57:39 34° 294° (WNW) 21:02:11 ?
JAS-2 21 Apr 21:12:55 21:14:05 11° 273° (W) 21:15:14 435.800 - 435.900 CW/SSB, 435.910 FM
ISS 21 Apr 21:14:28 21:17:40 42° 216° (SW) 21:20:51 145.800 FM
HO-68 21 Apr 21:21:24 21:28:33 84° 253° (WSW) 21:35:46 435.675 MHz FM
MaSat-1 21 Apr 21:23:15 21:25:56 43° 116° (ESE) 21:28:23 437.345 MHz
FUNcube-1 21 Apr 21:46:58 21:50:14 23° 65° (ENE) 21:53:31 145.950 - 145.970 MHz USB
Oscar 11 21 Apr 21:48:16 21:52:32 70° 74° (ENE) 21:56:52 145.825 FM, Beacon 2401.500 USB
SO-50 21 Apr 21:53:42 21:56:29 16° 29° (NNE) 21:59:17 436.795 FM
